Regional Weather Roundup
Issued by NWS

Home | Current Version | Previous Version | Graphics & Text | Print | Product List | Glossary On
Versions: 1 2 3 4 5 6 7 8 9 10 11 12 13 14 15 16 17 18 19 20 21 22 23 24 25 26 27 28 29 30 31 32 33 34 35 36 37 38 39 40 41 42 43 44 45 46 47 48 49 50
000
ASUS43 KLSX 300807
RWRMO

WEATHER SUMMARY FOR MISSOURI
NATIONAL WEATHER SERVICE SPRINGFIELD MO
300 AM CDT SAT AUG 30 2014

NOTE: "FAIR" INDICATES FEW OR NO CLOUDS BELOW 12,000 FEET WITH NO
       SIGNIFICANT WEATHER AND/OR OBSTRUCTIONS TO VISIBILITY.
       CURRENT SKY AND/OR WEATHER CONDITIONS ARE NOT AVAILABLE FOR
       CHILLICOTHE AND FARMINGTON.

MOZ001>031-035>038-043-044-053-054-300900-
...NORTHERN AND WESTERN MISSOURI...

CITY           SKY/WX    TMP DP  RH WIND       PRES   REMARKS
KANSAS CTY INT CLEAR     68  67  96 S7        29.87S
KANSAS C DTWN  CLEAR     72  69  90 CALM      29.86F
LEE`S SUMMIT   PTCLDY    73  66  78 SW7       29.89S
ST JOSEPH      CLEAR     67  65  93 CALM      29.86S
CHILLICOTHE      N/A     71  67  87 S3        29.86F
KIRKSVILLE     CLOUDY    69  66  90 S8        29.86F

$$
MOZ066>068-077>081-088>096-101>105-300900-
...SOUTHWEST MISSOURI...

CITY           SKY/WX    TMP DP  RH WIND       PRES   REMARKS
SPRINGFIELD    PTCLDY    72  67  84 S9        29.95S
JOPLIN         CLOUDY    75  68  78 S9        29.94S

$$
MOZ032>034-039>042-045>050-055>058-069>072-300900-
...CENTRAL MISSOURI...

CITY           SKY/WX    TMP DP  RH WIND       PRES   REMARKS
COLUMBIA       MOCLDY    72  69  90 S8        29.91S
JEFFERSON CITY MOCLDY    72  68  87 SE5       29.91S
ROLLA          PTCLDY    70  66  87 S12       29.94S
SEDALIA        MOCLDY    75  67  76 S9        29.91S
WHITEMAN AFB   PTCLDY    70  67  90 S10       29.89F
OSAGE BEACH    CLOUDY    72  66  83 CALM      29.94R

$$
MOZ051-052-059>065-300900-
...EAST CENTRAL MISSOURI...

CITY           SKY/WX    TMP DP  RH WIND       PRES   REMARKS
ST LOUIS INTL  CLOUDY    78  67  68 S8        29.93R
SPIRIT OF STL  CLOUDY    75  68  78 SW7       29.91R
ST CHARLES     CLOUDY    75  69  81 CALM      29.91R

$$
MOZ072>076-082>087-097>100-106>115-300900-
...SOUTH CENTRAL AND SOUTHEAST MISSOURI...

CITY           SKY/WX    TMP DP  RH WIND       PRES   REMARKS
CAPE GIRARDEAU MOCLDY    73  70  90 S3        29.97S
FARMINGTON     CLOUDY    72  68  88 S8        29.98F
POPLAR BLUFF   CLOUDY    72  69  90 CALM      29.96S
WEST PLAINS    CLOUDY    72  67  84 S5        29.99F

$$


USA.gov is the U.S. government's official web portal to all federal, state and local government web resources and services.